DMSP 5D-2 F13 DEB, 40401

Orbit data source: Space-Track

DMSP 5D-2 F13 DEB, 40401 is space debris in SSO originally from a launch on Fri, 24 Mar 1995 UTC launched from the Air Force Western Test Range (AFWTR). Debris objects in space refer to the collection of defunct objects orbiting the Earth. Examples of debris include non-operational satellites, rocket bodies, and fragments generated from explosions, collisions, or faulty payload assembly.

Loading next visibility...
Identifier
40401, 1995-015N
Orbit
SSO
Country
Flag of USUS
Related business
Manufacturer
Unknown
Mission
Spacecraft
Bus & Motor
Unknown
Mass
Unknown
Launch date (UTC)
1995-03-24 (31 years ago)
Launch vehicle
Unknown
Launch site
Air Force Western Test Range (AFWTR)
Object type
Payload
Rocket body
Debris
Shape & HBR
Unknown shape, 0.1 m
Radar Cross Section
Small (<0.1 m²)

Expand to show TLE details & history
Last TLE update: 1 day ago

TLE from 1 day ago
0 DMSP 5D-2 F13 DEB
1 40401U 95015N   26117.90355394  .00003230  00000-0  15072-2 0  9999
2 40401  98.9734  97.6171 0048132 268.4348  91.1314 14.20513484573539
Epoch: 2026-04-27T21:41Z
TLE epoch observation values (Epoch: 2026-04-27T21:41:07.060Z)
Latitude
-0.00003°
Longitude
-83.54885°
Altitude
827.375 km
Speed
7.439 km/s
True Right ascension
06h 30m 28s
True Declination
0° 00' 00"
Sunlit
Object was in daylight at epoch
Visualization orbit readout
Latitude
Unknown
Longitude
Unknown
Altitude
Unknown
Speed
Unknown
Apparent Right ascension
Unknown
Apparent Declination
Unknown
Sunlit
N/A
Visualization observer readout
Local Sidereal Time
15:31:00
Azimuth
Unknown
Elevation
Unknown
Doppler factor
Unknown
Orbital elements
Apogee altitude
855.437 km
Perigee altitude
786.138 km
Semi-major axis
7,198.924 km
Eccentricity
0.00481
Inclination
98.9734°
RAAN
97.6171°
Arg. of periapsis
268.4348°
True anomaly
91.68277°
Mean anomaly
91.1314°
Eccentric anomaly
91.40709°
Mean motion
3.55338 °/min
Orbital period
101.31 mins
BSTAR
0.0015072
Loading maneuver chart data...
Computing Atmospheric mass density...

Documentation

Showing up to 5 results
|